When you browse on this site, cookies collect data to enhance your experience and personalize the content and advertising you see.
Visit our Privacy Policy to learn more. By continuing to use the site, you agree to this use of cookies and data.
  • în România
  • Lista ţărilor
  • Pe 7 zile
  • Temperatura apei
  • Hartă satelitară
  • Meteo pe hartă
  • Widget-uri
  • user-avatar
    Intrare

    Meteo pe oră la Zildyarovo

    Astăzi, 22 Iulie, Luni

    Timp Temperatura Precipitaţii Vânt Presiune Umiditate
    00:00 +18°C° 0 mm 1 m/s 743 mmHg 87%
    01:00 +16°C° 0 mm 1 m/s 743 mmHg 88%
    02:00 +16°C° 0 mm 1 m/s 743 mmHg 89%
    03:00 +16°C° 0 mm 2 m/s 743 mmHg 91%
    04:00 +16°C° 0 mm 2 m/s 743 mmHg 92%
    05:00 +17°C° 0 mm 2 m/s 743 mmHg 91%
    06:00 +17°C° 0 mm 2 m/s 743 mmHg 89%
    07:00 +18°C° 0 mm 3 m/s 744 mmHg 88%
    08:00 +19°C° 0 mm 3 m/s 743 mmHg 84%
    09:00 +21°C° 0 mm 3 m/s 743 mmHg 80%
    10:00 +22°C° 0 mm 4 m/s 743 mmHg 76%
    11:00 +22°C° 0.1 mm 4 m/s 743 mmHg 73%
    12:00 +23°C° 0.1 mm 4 m/s 743 mmHg 71%
    13:00 +23°C° 0.1 mm 5 m/s 743 mmHg 68%
    14:00 +23°C° 0.5 mm 4 m/s 742 mmHg 69%
    15:00 +23°C° 0.5 mm 4 m/s 742 mmHg 71%
    16:00 +23°C° 0.5 mm 4 m/s 742 mmHg 72%
    17:00 +22°C° 0.2 mm 3 m/s 742 mmHg 76%
    18:00 +22°C° 0.2 mm 3 m/s 742 mmHg 80%
    19:00 +21°C° 0.2 mm 2 m/s 741 mmHg 83%
    20:00 +20°C° 0.4 mm 2 m/s 741 mmHg 86%
    21:00 +19°C° 0.4 mm 2 m/s 741 mmHg 89%
    22:00 +17°C° 0.4 mm 2 m/s 741 mmHg 92%
    23:00 +17°C° 0 mm 2 m/s 741 mmHg 92%

    Mâine, 23 Iulie, Marţi

    Timp Temperatura Precipitaţii Vânt Presiune Umiditate
    00:00 +16°C° 0 mm 2 m/s 741 mmHg 93%
    01:00 +15°C° 0 mm 2 m/s 741 mmHg 94%
    02:00 +15°C° 0 mm 2 m/s 741 mmHg 94%
    03:00 +14°C° 0 mm 2 m/s 741 mmHg 95%
    04:00 +14°C° 0 mm 2 m/s 741 mmHg 95%
    05:00 +15°C° 0 mm 2 m/s 741 mmHg 94%
    06:00 +14°C° 0 mm 3 m/s 741 mmHg 93%
    07:00 +16°C° 0 mm 3 m/s 742 mmHg 92%
    08:00 +18°C° 0 mm 3 m/s 742 mmHg 87%
    09:00 +19°C° 0 mm 4 m/s 742 mmHg 82%
    10:00 +20°C° 0 mm 4 m/s 742 mmHg 77%
    11:00 +21°C° 0 mm 4 m/s 742 mmHg 74%
    12:00 +22°C° 0 mm 4 m/s 742 mmHg 71%
    13:00 +23°C° 0 mm 5 m/s 742 mmHg 68%
    14:00 +23°C° 0.2 mm 5 m/s 742 mmHg 68%
    15:00 +23°C° 0.2 mm 5 m/s 742 mmHg 68%
    16:00 +23°C° 0.2 mm 5 m/s 742 mmHg 68%
    17:00 +22°C° 0.1 mm 4 m/s 743 mmHg 73%
    18:00 +21°C° 0.1 mm 4 m/s 743 mmHg 77%
    19:00 +21°C° 0.1 mm 3 m/s 743 mmHg 82%
    20:00 +19°C° 0 mm 3 m/s 743 mmHg 86%
    21:00 +18°C° 0 mm 2 m/s 743 mmHg 89%
    22:00 +17°C° 0 mm 2 m/s 743 mmHg 93%
    23:00 +16°C° 0 mm 2 m/s 743 mmHg 93%

    Poimâine, 24 Iulie, Miercuri

    Timp Temperatura Precipitaţii Vânt Presiune Umiditate
    00:00 +16°C° 0 mm 2 m/s 743 mmHg 94%
    01:00 +15°C° 0 mm 1 m/s 743 mmHg 94%
    02:00 +15°C° 0 mm 1 m/s 743 mmHg 95%
    03:00 +15°C° 0 mm 1 m/s 743 mmHg 95%
    04:00 +15°C° 0 mm 1 m/s 744 mmHg 96%
    05:00 +16°C° 0 mm 1 m/s 744 mmHg 94%
    06:00 +17°C° 0 mm 2 m/s 744 mmHg 92%
    07:00 +18°C° 0 mm 2 m/s 744 mmHg 90%
    08:00 +19°C° 0 mm 2 m/s 744 mmHg 84%
    09:00 +20°C° 0 mm 2 m/s 744 mmHg 79%
    10:00 +23°C° 0 mm 2 m/s 744 mmHg 73%
    11:00 +23°C° 0 mm 2 m/s 744 mmHg 71%
    12:00 +24°C° 0 mm 2 m/s 744 mmHg 68%
    13:00 +25°C° 0 mm 2 m/s 744 mmHg 66%
    14:00 +25°C° 0 mm 2 m/s 744 mmHg 66%
    15:00 +25°C° 0 mm 3 m/s 744 mmHg 66%
    16:00 +25°C° 0 mm 3 m/s 744 mmHg 67%
    17:00 +25°C° 0.1 mm 3 m/s 744 mmHg 72%
    18:00 +24°C° 0.1 mm 3 m/s 744 mmHg 77%
    19:00 +23°C° 0.1 mm 2 m/s 744 mmHg 82%
    20:00 +21°C° 0 mm 2 m/s 744 mmHg 85%
    21:00 +20°C° 0 mm 2 m/s 744 mmHg 88%
    22:00 +18°C° 0 mm 2 m/s 744 mmHg 92%
    23:00 +19°C° 0 mm 1 m/s 744 mmHg 92%

    25 Iulie, Joi

    Timp Temperatura Precipitaţii Vânt Presiune Umiditate
    00:00 +18°C° 0 mm 1 m/s 744 mmHg 92%
    01:00 +18°C° 0 mm 1 m/s 745 mmHg 92%
    02:00 +18°C° 0 mm 1 m/s 745 mmHg 93%
    03:00 +16°C° 0 mm 1 m/s 744 mmHg 95%
    04:00 +16°C° 0 mm 2 m/s 744 mmHg 96%
    05:00 +17°C° 0 mm 2 m/s 745 mmHg 94%
    06:00 +18°C° 0 mm 2 m/s 745 mmHg 93%
    07:00 +19°C° 0 mm 3 m/s 745 mmHg 92%
    08:00 +20°C° 0 mm 3 m/s 745 mmHg 86%
    09:00 +22°C° 0 mm 3 m/s 745 mmHg 81%
    10:00 +24°C° 0 mm 3 m/s 745 mmHg 75%
    11:00 +25°C° 0 mm 3 m/s 745 mmHg 72%
    12:00 +26°C° 0 mm 3 m/s 745 mmHg 68%
    13:00 +27°C° 0 mm 3 m/s 745 mmHg 65%
    14:00 +27°C° 0.1 mm 3 m/s 745 mmHg 65%
    15:00 +27°C° 0.1 mm 3 m/s 745 mmHg 66%
    16:00 +27°C° 0.1 mm 3 m/s 745 mmHg 66%
    17:00 +26°C° 0.1 mm 3 m/s 744 mmHg 71%
    18:00 +25°C° 0.1 mm 3 m/s 744 mmHg 76%
    19:00 +24°C° 0.1 mm 3 m/s 744 mmHg 81%
    20:00 +22°C° 0 mm 3 m/s 744 mmHg 83%
    21:00 +21°C° 0 mm 3 m/s 744 mmHg 85%
    22:00 +20°C° 0 mm 3 m/s 744 mmHg 87%
    23:00 +19°C° 0 mm 2 m/s 744 mmHg 87%

    26 Iulie, Vineri

    Timp Temperatura Precipitaţii Vânt Presiune Umiditate
    00:00 +19°C° 0 mm 2 m/s 745 mmHg 87%
    01:00 +19°C° 0 mm 2 m/s 745 mmHg 87%
    02:00 +18°C° 0 mm 2 m/s 745 mmHg 86%
    03:00 +18°C° 0 mm 2 m/s 744 mmHg 85%
    04:00 +18°C° 0 mm 2 m/s 744 mmHg 84%
    05:00 +18°C° 0 mm 2 m/s 745 mmHg 83%
    06:00 +19°C° 0 mm 2 m/s 745 mmHg 81%
    07:00 +20°C° 0 mm 2 m/s 745 mmHg 80%
    08:00 +21°C° 0 mm 2 m/s 745 mmHg 74%
    09:00 +24°C° 0 mm 3 m/s 745 mmHg 68%
    10:00 +25°C° 0 mm 3 m/s 745 mmHg 63%
    11:00 +26°C° 0 mm 3 m/s 745 mmHg 60%
    12:00 +27°C° 0 mm 2 m/s 744 mmHg 57%
    13:00 +27°C° 0 mm 2 m/s 744 mmHg 55%
    14:00 +27°C° 0 mm 2 m/s 744 mmHg 55%
    15:00 +27°C° 0 mm 2 m/s 744 mmHg 56%
    16:00 +28°C° 0 mm 2 m/s 743 mmHg 57%
    17:00 +27°C° 0.1 mm 2 m/s 743 mmHg 62%
    18:00 +26°C° 0.1 mm 2 m/s 743 mmHg 68%
    19:00 +25°C° 0.1 mm 2 m/s 743 mmHg 73%
    20:00 +23°C° 0 mm 2 m/s 743 mmHg 76%
    21:00 +22°C° 0 mm 1 m/s 743 mmHg 79%
    22:00 +21°C° 0 mm 1 m/s 743 mmHg 82%
    23:00 +20°C° 0 mm 1 m/s 743 mmHg 83%

    27 Iulie, Sâmbătă

    Timp Temperatura Precipitaţii Vânt Presiune Umiditate
    00:00 +19°C° 0 mm 2 m/s 742 mmHg 84%
    01:00 +19°C° 0 mm 2 m/s 742 mmHg 85%
    02:00 +19°C° 0 mm 1 m/s 742 mmHg 85%
    03:00 +19°C° 0 mm 1 m/s 742 mmHg 86%
    04:00 +18°C° 0 mm 1 m/s 742 mmHg 87%
    05:00 +19°C° 0 mm 1 m/s 742 mmHg 83%
    06:00 +20°C° 0 mm 1 m/s 742 mmHg 80%
    07:00 +21°C° 0 mm 1 m/s 742 mmHg 76%
    08:00 +21°C° 0 mm 2 m/s 742 mmHg 70%
    09:00 +24°C° 0 mm 2 m/s 741 mmHg 64%
    10:00 +25°C° 0 mm 2 m/s 741 mmHg 58%
    11:00 +26°C° 0 mm 2 m/s 741 mmHg 55%
    12:00 +27°C° 0 mm 2 m/s 741 mmHg 52%
    13:00 +27°C° 0 mm 2 m/s 740 mmHg 49%
    14:00 +28°C° 0 mm 2 m/s 740 mmHg 48%
    15:00 +28°C° 0 mm 1 m/s 740 mmHg 47%
    16:00 +28°C° 0 mm 1 m/s 739 mmHg 47%
    17:00 +27°C° 0 mm 1 m/s 739 mmHg 54%
    18:00 +26°C° 0 mm 1 m/s 738 mmHg 61%
    19:00 +25°C° 0 mm 1 m/s 738 mmHg 68%
    20:00 +23°C° 0 mm 2 m/s 738 mmHg 72%
    21:00 +21°C° 0 mm 2 m/s 737 mmHg 76%
    22:00 +19°C° 0 mm 2 m/s 737 mmHg 80%
    23:00 +19°C° 0 mm 2 m/s 737 mmHg 79%
    Arată mai mult